This is the latest recevied weather packets stored in our database for station/object DG1ROH. If no packets are shown the sender has not sent any weather packets the latest 1 day(s).
| Time | Temp. | Humidity | Pressure | Rain* | Wind** | Luminosity | Snow |
|---|---|---|---|---|---|---|---|
| 1777995085 | 16.67° C | 81% | 1007.8 hPa | 0 mm | 0.89 m/s, 324° | 107 W/m² | - |
| 1777994965 | 16.67° C | 81% | 1007.8 hPa | 0 mm | 0.89 m/s, 346° | 118 W/m² | - |
| 1777994843 | 16.67° C | 81% | 1007.8 hPa | 0 mm | 0.89 m/s, 16° | 127 W/m² | - |
| 1777994722 | 16.67° C | 81% | 1007.8 hPa | 0 mm | 1.34 m/s, 18° | 127 W/m² | - |
| 1777994601 | 16.67° C | 80% | 1007.7 hPa | 0 mm | 1.34 m/s, 44° | 127 W/m² | - |
| 1777994481 | 16.67° C | 81% | 1007.7 hPa | 0 mm | 1.34 m/s, 19° | 134 W/m² | - |
| 1777994362 | 16.67° C | 81% | 1007.7 hPa | 0 mm | 1.34 m/s, 0° | 151 W/m² | - |
| 1777994240 | 16.67° C | 80% | 1007.7 hPa | 0 mm | 1.34 m/s, 5° | 163 W/m² | - |
| 1777994119 | 16.67° C | 81% | 1007.7 hPa | 0 mm | 1.34 m/s, 38° | 165 W/m² | - |
| 1777993997 | 17.22° C | 80% | 1007.8 hPa | 0 mm | 1.34 m/s, 45° | 169 W/m² | - |
| 1777993877 | 17.22° C | 80% | 1007.7 hPa | 0 mm | 1.34 m/s, 51° | 174 W/m² | - |
| 1777993757 | 17.22° C | 81% | 1007.8 hPa | 0 mm | 0.89 m/s, 60° | 190 W/m² | - |
| 1777993637 | 17.22° C | 80% | 1007.8 hPa | 0 mm | 0.45 m/s, 20° | 185 W/m² | - |
| 1777993517 | 17.22° C | 80% | 1007.8 hPa | 0 mm | 0.45 m/s, 295° | 139 W/m² | - |
| 1777993395 | 17.22° C | 80% | 1007.9 hPa | 0 mm | 0.45 m/s, 294° | 113 W/m² | - |
| 1777993275 | 17.22° C | 81% | 1007.8 hPa | 0 mm | 0.45 m/s, 355° | 118 W/m² | - |
| 1777993153 | 17.22° C | 80% | 1008 hPa | 0 mm | 0.45 m/s, 59° | 121 W/m² | - |
| 1777993046 | 17.22° C | 81% | 1008 hPa | 0 mm | 0.45 m/s, 34° | 116 W/m² | - |
| 1777992913 | 17.22° C | 81% | 1007.9 hPa | 0 mm | 0.45 m/s, 34° | 109 W/m² | - |
| 1777992793 | 17.22° C | 80% | 1008 hPa | 0 mm | 0.45 m/s, 34° | 109 W/m² | - |
| 1777992667 | 16.67° C | 80% | 1007.9 hPa | 0 mm | 0.45 m/s, 34° | 107 W/m² | - |
| 1777992547 | 17.22° C | 80% | 1007.8 hPa | 0 mm | 0.89 m/s, 39° | 121 W/m² | - |
| 1777992429 | 17.22° C | 80% | 1007.9 hPa | 0 mm | 0.89 m/s, 31° | 141 W/m² | - |
| 1777992307 | 17.22° C | 80% | 1007.8 hPa | 0 mm | 0.89 m/s, 38° | 155 W/m² | - |
| 1777992187 | 17.22° C | 81% | 1007.9 hPa | 0 mm | 0.89 m/s, 19° | 144 W/m² | - |
* Rain latest hour (hover to see other rain measurements)
** Current wind speed in m/s (hover to see current wind gust speed)